Regional Weather Roundup
Issued by NWS

Home | Current Version | Previous Version | Text Only | Print | Product List | Glossary On
Versions: 1 2 3 4 5 6 7 8 9 10 11 12 13 14 15 16 17 18 19 20 21 22 23 24 25 26 27 28 29 30 31 32 33 34 35 36 37 38 39 40 41 42 43 44 45 46 47 48 49 50
000
ASUS43 KIND 190509
RWRIN

WEATHER ROUNDUP FOR INDIANA
NATIONAL WEATHER SERVICE INDIANAPOLIS IN
1200 AM EST THU JAN 19 2017

NOTE: "FAIR" INDICATES FEW OR NO CLOUDS BELOW 12,000 FEET WITH NO
SIGNIFICANT WEATHER AND/OR OBSTRUCTIONS TO VISIBILITY.

* - STATION DOES NOT REPORT WEATHER SUCH AS PRECIPITATION OR FOG.

+ - STATION NOT QUALITY CONTROLLED BY THE NATIONAL WEATHER SERVICE.
    USE DATA WITH CAUTION...ESPECIALLY DEWPOINT AND RELATIVE
    HUMIDITY OBSERVATIONS.

INZ001>003-010>013-019-020-190600-
NORTHWEST INDIANA

CITY           SKY/WX    TMP DP  RH WIND       PRES   REMARKS
GARY /AIRPORT/ CLEAR     37  33  86 S3        30.07F
KNOX *+        CLOUDY    34  21  60 SW7       30.09S WCI  28
LA PORTE +     CLOUDY    35  32  90 SW9       30.09S WCI  28
MICHIGAN CITY+ CLOUDY    36  36 100 SW10      30.08S
MONTICELLO +   CLOUDY    35  32  88 SW6       30.10F WCI  30
RENSSELAER +     N/A     36  34  93 SW6       30.10S
VALPARAISO     CLOUDY    37  34  89 SW9       30.08F

$$

LMZ046-743>745-190600-
SOUTHERN LAKE MICHIGAN

STATION/POSITION TIME  TEMP    WIND        PRES    WAVE
                       AIR SEA DIR/SP/G            HT
                 (UTC) (F)     (DEG/KT/KT) (MB)    (FT)
BURNS HARBOR     0500   37     200/ 10/ 19 1019.0

$$

INZ004-005-014>016-021>024-190600-
NORTH CENTRAL INDIANA

CITY           SKY/WX    TMP DP  RH WIND       PRES   REMARKS
GOSHEN         CLOUDY    35  30  82 SW9       30.08S WCI  28
LOGANSPORT +   CLOUDY    34  32  93 SW7       30.12S WCI  28
ROCHESTER +    CLOUDY    36  34  93 SW7       30.10F
SOUTH BEND     CLOUDY    35  32  88 SW12      30.08S WCI  27
WARSAW +       CLOUDY    34  28  80 SW8       30.09S WCI  27

$$

INZ006>009-017-018-025>027-190600-
NORTHEAST INDIANA

CITY           SKY/WX    TMP DP  RH WIND       PRES   REMARKS
ANGOLA *+      CLOUDY    34  32  93 SW8       30.06F WCI  27
AUBURN +       CLOUDY    34  32  93 SW5       30.09F FOG     WCI  30
FORT WAYNE     CLOUDY    36  32  85 SW13      30.10F
HUNTINGTON +   CLOUDY    34  33  96 SW8       30.11F WCI  28
KENDALLVILLE + CLOUDY    33  33 100 SW8       30.08F FOG     WCI  26

$$

INZ028-029-035-036-043>045-051>053-190600-
WEST CENTRAL INDIANA

CITY           SKY/WX    TMP DP  RH WIND       PRES   REMARKS
CRAWFORDSVL +  CLOUDY    34  34 100 S5        30.10F WCI  30
GREENCASTLE +  CLOUDY    36  34  93 S3        30.12F
LAFAYETTE      CLOUDY    35  34  96 SW6       30.11S WCI  30
TERRE HAUTE    CLOUDY    36  33  89 S3        30.13S

$$

INZ030>032-037>040-046>048-054>057-064-065-190600-
CENTRAL INDIANA

CITY           SKY/WX    TMP DP  RH WIND       PRES   REMARKS
CP ATTERBURY + CLOUDY    37  34  87 CALM      30.13S
FISHERS *+     CLOUDY    36  36 100 CALM      30.12S
FRANKFORT +    CLOUDY    38  35  91 SW8       30.12S
GREENWOOD *+   CLOUDY    38  36  92 SW3       30.12S
INDIANAPOLIS   CLOUDY    37  33  85 SW7       30.11F
-EAGLE CREEK   CLOUDY    37  32  82 CALM      30.11S
KOKOMO +       CLOUDY    35  33  92 SW6       30.11F WCI  30
MARION +       CLOUDY    36  34  93 SW8       30.11F FOG
MT COMFORT *+  CLOUDY    36  34  93 SW5       30.12S
SHELBYVILLE    CLOUDY    38  34  85 SW5       30.12F
ZIONSVILLE +   CLOUDY    35  33  93 SW6       30.12S WCI  30

$$

INZ033-034-041-042-049-050-058-059-190600-
EAST CENTRAL INDIANA

CITY           SKY/WX    TMP DP  RH WIND       PRES   REMARKS
MUNCIE         CLOUDY    37  34  89 SW6       30.10F

$$

INZ060-061-067>069-081>083-085>088-190600-
SOUTHWEST INDIANA

CITY           SKY/WX    TMP DP  RH WIND       PRES   REMARKS
EVANSVILLE     CLOUDY    40  35  83 E3        30.12F
HUNTINGBURG *+ CLOUDY    37  35  92 CALM      30.13F
WASHINGTON +   CLOUDY    37  35  94 E3        30.13F FOG

$$

INZ062-063-066-070>080-084-089>092-190600-
SOUTH CENTRAL AND SOUTHEAST INDIANA

CITY           SKY/WX    TMP DP  RH WIND       PRES   REMARKS
BLOOMINGTON    CLOUDY    35  33  92 CALM      30.12R
MADISON *+     CLOUDY    36  34  93 CALM      30.14S
NORTH VERNON + CLOUDY   N/A N/A N/A CALM      30.13F
SEYMOUR +      MOCLDY    39  36  87 CALM      30.13S

$$





USA.gov is the U.S. government's official web portal to all federal, state and local government web resources and services.